Creal Reef Observation History
Time Wind Speed Temp Pressure Rel. Hum Rain
03/02:30pm SE 11-13 kts 26.8°c 1008.8 hPa n/a n/a
03/02:00pm ESE 11-13 kts 26.8°c 1009.0 hPa n/a n/a
03/01:30pm SE 11-14 kts 26.9°c 1009.5 hPa n/a n/a
03/01:00pm ESE 11-13 kts 26.7°c 1009.6 hPa n/a n/a
03/12:30pm ESE 12-16 kts 26.8°c 1010.1 hPa n/a n/a
03/12:00pm ESE 13-15 kts 26.7°c 1010.4 hPa n/a n/a
03/11:30am ESE 14-16 kts 26.6°c 1010.6 hPa n/a n/a
03/11:00am ESE 13-16 kts 26.7°c 1011.1 hPa n/a n/a
03/10:30am ESE 14-16 kts 26.6°c 1011.5 hPa n/a n/a
03/10:00am ESE 14-16 kts 26.5°c 1011.7 hPa n/a n/a
03/09:30am SE 14-17 kts 26.7°c 1012.0 hPa n/a n/a
03/09:00am ESE 14-16 kts 26.6°c 1011.8 hPa n/a n/a
03/08:30am SE 14-17 kts 26.7°c 1011.9 hPa n/a n/a
03/08:00am ESE 15-18 kts 26.6°c 1011.5 hPa n/a n/a
03/07:30am ESE 16-18 kts 26.5°c 1011.2 hPa n/a n/a
03/07:00am ESE 17-20 kts 26.6°c 1010.7 hPa n/a n/a
03/06:30am ESE 17-19 kts 26.4°c 1010.4 hPa n/a n/a
03/06:00am ESE 17-20 kts 26.3°c 1010.0 hPa n/a n/a
03/05:30am ESE 17-19 kts 26.3°c 1009.7 hPa n/a n/a
03/05:00am ESE 15-17 kts 26.4°c 1009.5 hPa n/a n/a
03/04:30am ESE 14-16 kts 26.2°c 1009.6 hPa n/a n/a
03/04:00am ESE 13-16 kts 26.3°c 1009.4 hPa n/a n/a
03/03:30am ESE 14-17 kts 26.3°c 1009.7 hPa n/a n/a
03/03:00am SE 13-15 kts 26.2°c 1009.8 hPa n/a n/a
03/02:30am ESE 12-14 kts 26.1°c 1009.8 hPa n/a n/a
03/02:00am ESE 13-15 kts 26.3°c 1010.0 hPa n/a n/a
03/01:30am ESE 13-16 kts 26.2°c 1010.4 hPa n/a n/a
03/01:00am ESE 13-15 kts 26.3°c 1010.6 hPa n/a n/a
03/12:30am ESE 13-17 kts 26.4°c 1011.3 hPa n/a n/a
03/12:00am ESE 13-15 kts 26.3°c 1011.4 hPa n/a n/a
Time Wind Speed Temp Pressure Rel. Hum Rain
02/11:30pm ESE 14-16 kts 26.3°c 1011.6 hPa n/a n/a
02/11:00pm ESE 16-18 kts 26.5°c 1011.8 hPa n/a n/a
02/10:30pm SE 16-19 kts 26.5°c 1011.9 hPa n/a n/a
02/10:00pm ESE 16-18 kts 26.7°c 1012.0 hPa n/a n/a
02/09:30pm SE 16-19 kts 26.6°c 1012.1 hPa n/a n/a
02/09:00pm SE 16-19 kts 26.6°c 1012.1 hPa n/a n/a
02/08:30pm SE 14-15 kts 26.6°c 1011.8 hPa n/a n/a
02/08:00pm SE 14-17 kts 26.5°c 1011.6 hPa n/a n/a
02/07:30pm SE 13-17 kts 26.6°c 1011.6 hPa n/a n/a
02/07:00pm SE 14-17 kts 26.7°c 1011.3 hPa n/a n/a
02/06:30pm SE 16-19 kts 26.6°c 1011.3 hPa n/a n/a
02/06:00pm ESE 17-20 kts 26.7°c 1011.0 hPa n/a n/a
02/05:30pm ESE 17-20 kts 26.6°c 1010.9 hPa n/a n/a
02/05:00pm SE 17-20 kts 26.6°c 1010.5 hPa n/a n/a
02/04:30pm ESE 17-20 kts 26.8°c 1010.6 hPa n/a n/a
02/04:00pm ESE 17-19 kts 26.7°c 1010.4 hPa n/a n/a
02/03:30pm SE 17-19 kts 26.7°c 1010.7 hPa n/a n/a
02/03:00pm SE 17-20 kts 26.8°c 1010.6 hPa n/a n/a
02/02:30pm SE 18-21 kts 26.7°c 1010.9 hPa n/a n/a
02/02:00pm SE 16-19 kts 26.8°c 1011.2 hPa n/a n/a
02/01:30pm SE 17-20 kts 26.8°c 1011.5 hPa n/a n/a
02/01:00pm SE 16-19 kts 26.8°c 1011.5 hPa n/a n/a
02/12:30pm SE 12-15 kts 26.4°c 1011.9 hPa n/a n/a
02/12:00pm ESE 16-19 kts 25.8°c 1012.3 hPa n/a n/a
02/11:30am SE 21-27 kts 24.1°c 1013.2 hPa n/a n/a
02/11:00am SE 16-23 kts 25.8°c 1013.2 hPa n/a n/a
02/10:30am SE 15-17 kts 26.8°c 1013.2 hPa n/a n/a
02/10:00am SE 16-18 kts 26.8°c 1013.4 hPa n/a n/a
02/09:30am SE 15-18 kts 26.9°c 1013.4 hPa n/a n/a
02/09:00am SE 15-17 kts 26.9°c 1013.2 hPa n/a n/a
02/08:30am SE 15-17 kts 26.9°c 1013.3 hPa n/a n/a
02/08:00am SE 14-17 kts 26.9°c 1012.9 hPa n/a n/a
02/07:30am SE 14-17 kts 26.7°c 1012.7 hPa n/a n/a
02/07:00am SE 14-16 kts 26.5°c 1012.4 hPa n/a n/a
02/06:30am ESE 15-17 kts 26.5°c 1012.3 hPa n/a n/a
02/06:00am SE 16-19 kts 26.3°c 1011.7 hPa n/a n/a
02/05:30am ESE 16-18 kts 26.6°c 1011.3 hPa n/a n/a
02/05:00am ESE 17-19 kts 26.4°c 1010.9 hPa n/a n/a
02/04:30am ESE 15-19 kts 26.5°c 1010.8 hPa n/a n/a
02/04:00am ESE 16-19 kts 26.7°c 1010.7 hPa n/a n/a
02/03:30am ESE 18-21 kts 26.6°c 1010.7 hPa n/a n/a
02/03:00am ESE 17-20 kts 26.1°c 1010.7 hPa n/a n/a
02/02:30am ESE 18-21 kts 26.2°c 1011.2 hPa n/a n/a
02/02:00am ESE 17-20 kts 26.2°c 1011.5 hPa n/a n/a
02/01:30am ESE 19-23 kts 26.1°c 1012.1 hPa n/a n/a
02/01:00am ESE 17-19 kts 26.4°c 1012.5 hPa n/a n/a
02/12:30am SE 17-19 kts 26.5°c 1013.0 hPa n/a n/a
02/12:00am SE 16-19 kts 26.6°c 1013.3 hPa n/a n/a
Time Wind Speed Temp Pressure Rel. Hum Rain
01/11:30pm SE 17-19 kts 26.5°c 1013.8 hPa n/a n/a
01/11:00pm SE 17-21 kts 26.5°c 1014.0 hPa n/a n/a
01/10:30pm SE 18-21 kts 26.7°c 1014.4 hPa n/a n/a
01/10:00pm ESE 17-20 kts 26.8°c 1014.2 hPa n/a n/a
01/09:30pm ESE 19-22 kts 26.7°c 1014.1 hPa n/a n/a
01/09:00pm ESE 20-22 kts 26.8°c 1013.8 hPa n/a n/a
01/08:30pm ESE 20-23 kts 26.8°c 1013.5 hPa n/a n/a
01/08:00pm ESE 20-23 kts 26.7°c 1013.1 hPa n/a n/a
01/07:30pm SE 20-23 kts 26.7°c 1013.2 hPa n/a n/a
01/07:00pm SE 21-24 kts 26.7°c 1012.9 hPa n/a n/a
01/06:30pm SE 20-23 kts 26.7°c 1012.9 hPa n/a n/a
01/06:00pm SE 20-23 kts 26.8°c 1012.5 hPa n/a n/a
01/05:30pm SE 19-22 kts 26.8°c 1012.5 hPa n/a n/a
01/05:00pm SE 18-21 kts 27.0°c 1012.1 hPa n/a n/a
01/04:30pm SE 18-21 kts 27.0°c 1012.1 hPa n/a n/a
01/04:00pm SE 18-20 kts 27.1°c 1012.1 hPa n/a n/a
01/03:30pm SE 17-20 kts 27.0°c 1012.1 hPa n/a n/a
01/03:00pm SE 17-20 kts 26.9°c 1012.1 hPa n/a n/a
01/02:30pm SE 17-20 kts 26.9°c 1012.1 hPa n/a n/a
01/02:00pm SE 17-20 kts 26.9°c 1012.1 hPa n/a n/a
01/01:30pm SE 17-20 kts 26.9°c 1012.3 hPa n/a n/a
01/01:00pm SE 17-20 kts 27.0°c 1012.6 hPa n/a n/a
01/12:30pm SE 17-20 kts 27.1°c 1012.9 hPa n/a n/a
01/12:00pm ESE 17-20 kts 27.0°c 1013.3 hPa n/a n/a
01/11:30am SE 18-20 kts 27.0°c 1013.7 hPa n/a n/a
01/11:00am ESE 15-17 kts 27.0°c 1014.0 hPa n/a n/a
01/10:30am ESE 14-17 kts 27.1°c 1014.2 hPa n/a n/a
01/10:00am ESE 15-18 kts 26.9°c 1014.1 hPa n/a n/a
01/09:30am ESE 16-19 kts 26.9°c 1013.9 hPa n/a n/a
01/09:00am ESE 15-17 kts 26.8°c 1013.8 hPa n/a n/a
01/08:30am ESE 15-18 kts 26.8°c 1013.7 hPa n/a n/a
01/08:00am ESE 15-17 kts 26.9°c 1013.5 hPa n/a n/a
01/07:30am ESE 15-17 kts 26.8°c 1013.6 hPa n/a n/a
01/07:00am ESE 15-18 kts 26.8°c 1013.3 hPa n/a n/a
01/06:30am ESE 15-18 kts 26.7°c 1013.2 hPa n/a n/a
01/06:00am ESE 15-19 kts 26.5°c 1012.6 hPa n/a n/a
01/05:30am ESE 14-16 kts 26.6°c 1012.3 hPa n/a n/a
01/05:00am SE 13-15 kts 26.5°c 1012.2 hPa n/a n/a
01/04:30am ESE 13-15 kts 26.5°c 1012.0 hPa n/a n/a
01/04:00am ESE 13-16 kts 26.4°c 1011.7 hPa n/a n/a
01/03:30am ESE 15-18 kts 26.5°c 1011.6 hPa n/a n/a
01/03:00am ESE 15-18 kts 26.5°c 1011.5 hPa n/a n/a
01/02:30am ESE 16-19 kts 26.5°c 1011.8 hPa n/a n/a
01/02:00am ESE 14-17 kts 26.4°c 1012.0 hPa n/a n/a
01/01:30am ESE 15-17 kts 26.4°c 1012.4 hPa n/a n/a
01/01:00am ESE 15-17 kts 26.5°c 1012.6 hPa n/a n/a
01/12:30am ESE 15-17 kts 26.6°c 1013.0 hPa n/a n/a
01/12:00am ESE 15-19 kts 26.5°c 1013.3 hPa n/a n/a